When you browse on this site, cookies collect data to enhance your experience and personalize the content and advertising you see.
Visit our Privacy Policy to learn more. By continuing to use the site, you agree to this use of cookies and data.
  • en Suisse
  • Liste des pays
  • À 7 jours
  • Température de l'eau
  • Carte météo
  • Widgets météo
  • user-avatar
    Se connecter

    Météo par heure à Wakefield

    Ce jour, 8 Décembre, Dimanche

    Heure Température Précipitation Vent Pression Humidité
    00:00 +8°C° 0 mm 10 m/s 739 mmHg 80%
    01:00 +9°C° 0.5 mm 10 m/s 738 mmHg 81%
    02:00 +9°C° 0.5 mm 10 m/s 737 mmHg 81%
    03:00 +11°C° 0.5 mm 10 m/s 736 mmHg 82%
    04:00 +9°C° 0 mm 10 m/s 737 mmHg 78%
    05:00 +7°C° 0 mm 9 m/s 737 mmHg 73%
    06:00 +6°C° 0 mm 7 m/s 737 mmHg 74%
    07:00 +6°C° 0 mm 7 m/s 738 mmHg 72%
    08:00 +6°C° 0 mm 8 m/s 738 mmHg 71%
    09:00 +5°C° 0 mm 8 m/s 738 mmHg 70%
    10:00 +6°C° 0.1 mm 8 m/s 738 mmHg 68%
    11:00 +6°C° 0.1 mm 9 m/s 738 mmHg 66%
    12:00 +6°C° 0 mm 8 m/s 737 mmHg 66%
    13:00 +6°C° 0.1 mm 8 m/s 737 mmHg 65%
    14:00 +6°C° 0.1 mm 8 m/s 736 mmHg 65%
    15:00 +5°C° 0.1 mm 9 m/s 736 mmHg 64%
    16:00 +5°C° 0.1 mm 8 m/s 735 mmHg 66%
    17:00 +5°C° 0.1 mm 8 m/s 735 mmHg 68%
    18:00 +5°C° 0.1 mm 8 m/s 735 mmHg 70%
    19:00 +4°C° 0.1 mm 8 m/s 734 mmHg 72%
    20:00 +4°C° 0.1 mm 8 m/s 734 mmHg 74%
    21:00 +4°C° 0.1 mm 7 m/s 733 mmHg 76%
    22:00 +4°C° 0.7 mm 7 m/s 733 mmHg 77%
    23:00 +4°C° 0.7 mm 6 m/s 733 mmHg 77%

    Demain, 9 Décembre, Lundi

    Heure Température Précipitation Vent Pression Humidité
    00:00 +4°C° 0.7 mm 6 m/s 733 mmHg 78%
    01:00 +4°C° 0.1 mm 6 m/s 733 mmHg 79%
    02:00 +4°C° 0.1 mm 6 m/s 734 mmHg 81%
    03:00 +4°C° 0.1 mm 6 m/s 734 mmHg 82%
    04:00 +4°C° 0 mm 7 m/s 737 mmHg 78%
    05:00 +3°C° 0 mm 9 m/s 739 mmHg 74%
    06:00 +3°C° 0 mm 10 m/s 741 mmHg 71%
    07:00 +3°C° 0 mm 9 m/s 743 mmHg 70%
    08:00 +2°C° 0 mm 8 m/s 745 mmHg 70%
    09:00 +3°C° 0 mm 7 m/s 748 mmHg 69%
    10:00 +3°C° 0 mm 7 m/s 749 mmHg 66%
    11:00 +3°C° 0 mm 7 m/s 751 mmHg 62%
    12:00 +4°C° 0 mm 6 m/s 753 mmHg 59%
    13:00 +3°C° 0 mm 6 m/s 753 mmHg 60%
    14:00 +3°C° 0 mm 5 m/s 754 mmHg 61%
    15:00 +3°C° 0 mm 5 m/s 755 mmHg 62%
    16:00 +3°C° 0 mm 4 m/s 756 mmHg 64%
    17:00 +3°C° 0 mm 3 m/s 757 mmHg 67%
    18:00 +2°C° 0 mm 3 m/s 758 mmHg 69%
    19:00 +3°C° 0 mm 2 m/s 759 mmHg 72%
    20:00 +3°C° 0 mm 2 m/s 759 mmHg 74%
    21:00 +3°C° 0 mm 2 m/s 759 mmHg 76%
    22:00 +3°C° 0 mm 2 m/s 759 mmHg 79%
    23:00 +2°C° 0 mm 3 m/s 759 mmHg 81%

    Après-demain, 10 Décembre, Mardi

    Heure Température Précipitation Vent Pression Humidité
    00:00 +2°C° 0 mm 3 m/s 759 mmHg 84%
    01:00 +2°C° 0 mm 3 m/s 758 mmHg 83%
    02:00 +3°C° 0 mm 4 m/s 757 mmHg 82%
    03:00 +3°C° 0 mm 4 m/s 757 mmHg 81%
    04:00 +2°C° 0 mm 5 m/s 755 mmHg 81%
    05:00 +3°C° 0 mm 6 m/s 754 mmHg 82%
    06:00 +3°C° 0 mm 7 m/s 753 mmHg 83%
    07:00 +4°C° 0.2 mm 8 m/s 752 mmHg 83%
    08:00 +4°C° 0.2 mm 8 m/s 751 mmHg 83%
    09:00 +5°C° 0.2 mm 9 m/s 749 mmHg 83%
    10:00 +6°C° 0.4 mm 10 m/s 748 mmHg 84%
    11:00 +7°C° 0.4 mm 10 m/s 746 mmHg 84%
    12:00 +7°C° 0.4 mm 11 m/s 745 mmHg 84%
    13:00 +8°C° 0.3 mm 11 m/s 743 mmHg 84%
    14:00 +9°C° 0.3 mm 11 m/s 742 mmHg 84%
    15:00 +11°C° 0.3 mm 11 m/s 740 mmHg 84%
    16:00 +8°C° 1.5 mm 10 m/s 741 mmHg 84%
    17:00 +7°C° 1.5 mm 10 m/s 741 mmHg 83%
    18:00 +5°C° 1.5 mm 9 m/s 742 mmHg 83%
    19:00 +5°C° 0.1 mm 8 m/s 743 mmHg 78%
    20:00 +5°C° 0.1 mm 8 m/s 744 mmHg 73%
    21:00 +5°C° 0.1 mm 7 m/s 745 mmHg 67%
    22:00 +4°C° 0 mm 7 m/s 745 mmHg 68%
    23:00 +4°C° 0 mm 6 m/s 746 mmHg 69%

    11 Décembre, Mercredi

    Heure Température Précipitation Vent Pression Humidité
    00:00 +4°C° 0 mm 6 m/s 746 mmHg 70%
    01:00 +3°C° 0 mm 5 m/s 746 mmHg 70%
    02:00 +3°C° 0 mm 5 m/s 746 mmHg 71%
    03:00 +3°C° 0 mm 5 m/s 746 mmHg 72%
    04:00 +3°C° 0 mm 4 m/s 746 mmHg 72%
    05:00 +3°C° 0 mm 4 m/s 746 mmHg 73%
    06:00 +3°C° 0 mm 4 m/s 745 mmHg 74%
    07:00 +2°C° 0.2 mm 5 m/s 745 mmHg 78%
    08:00 +2°C° 0.2 mm 5 m/s 744 mmHg 81%
    09:00 +2°C° 0.2 mm 5 m/s 744 mmHg 85%
    10:00 +3°C° 0 mm 5 m/s 743 mmHg 81%
    11:00 +3°C° 0 mm 5 m/s 743 mmHg 78%
    12:00 +5°C° 0 mm 5 m/s 742 mmHg 74%
    13:00 +4°C° 0.1 mm 4 m/s 741 mmHg 76%
    14:00 +4°C° 0.1 mm 3 m/s 741 mmHg 77%
    15:00 +5°C° 0.1 mm 2 m/s 740 mmHg 79%
    16:00 +3°C° 0.9 mm 3 m/s 740 mmHg 79%
    17:00 +3°C° 0.9 mm 4 m/s 741 mmHg 79%
    18:00 +2°C° 0.9 mm 5 m/s 741 mmHg 80%
    19:00 +1°C° 0 mm 5 m/s 741 mmHg 78%
    20:00 +1°C° 0 mm 5 m/s 742 mmHg 76%
    21:00 +1°C° 0 mm 4 m/s 743 mmHg 75%
    22:00 +1°C° 0 mm 5 m/s 743 mmHg 74%
    23:00 +1°C° 0 mm 5 m/s 743 mmHg 74%

    12 Décembre, Jeudi

    Heure Température Précipitation Vent Pression Humidité
    00:00 +2°C° 0 mm 6 m/s 743 mmHg 73%
    01:00 +1°C° 0 mm 5 m/s 743 mmHg 74%
    02:00 +1°C° 0 mm 5 m/s 743 mmHg 74%
    03:00 +1°C° 0 mm 5 m/s 743 mmHg 75%
    04:00 +1°C° 0 mm 5 m/s 742 mmHg 76%
    05:00 +1°C° 0 mm 5 m/s 742 mmHg 77%
    06:00 +1°C° 0 mm 5 m/s 741 mmHg 78%
    07:00 +1°C° 0.2 mm 5 m/s 740 mmHg 83%
    08:00 +1°C° 0.2 mm 5 m/s 739 mmHg 88%
    09:00 +1°C° 0.2 mm 6 m/s 738 mmHg 92%
    10:00 +2°C° 0.4 mm 6 m/s 736 mmHg 91%
    11:00 +3°C° 0.4 mm 7 m/s 734 mmHg 90%
    12:00 +4°C° 0.4 mm 7 m/s 731 mmHg 89%
    13:00 +5°C° 2 mm 7 m/s 729 mmHg 89%
    14:00 +5°C° 2 mm 7 m/s 727 mmHg 89%
    15:00 +6°C° 2 mm 7 m/s 725 mmHg 89%
    16:00 +5°C° 0.2 mm 8 m/s 724 mmHg 86%
    17:00 +5°C° 0.2 mm 9 m/s 724 mmHg 82%
    18:00 +5°C° 0.2 mm 10 m/s 723 mmHg 78%
    19:00 +3°C° 0.5 mm 10 m/s 724 mmHg 75%
    20:00 +3°C° 0.5 mm 10 m/s 724 mmHg 71%
    21:00 +2°C° 0.5 mm 10 m/s 725 mmHg 68%
    22:00 +2°C° 0 mm 10 m/s 725 mmHg 67%
    23:00 +1°C° 0 mm 10 m/s 725 mmHg 66%

    13 Décembre, Vendredi

    Heure Température Précipitation Vent Pression Humidité
    00:00 +1°C° 0 mm 10 m/s 725 mmHg 65%
    01:00 +1°C° 0.1 mm 11 m/s 724 mmHg 66%
    02:00 0°C° 0.1 mm 12 m/s 724 mmHg 68%
    03:00 0°C° 0.1 mm 13 m/s 724 mmHg 69%
    04:00 0°C° 0.4 mm 13 m/s 724 mmHg 69%
    05:00 0°C° 0.4 mm 14 m/s 724 mmHg 68%
    06:00 +1°C° 0.4 mm 14 m/s 725 mmHg 67%
    07:00 +1°C° 0 mm 13 m/s 726 mmHg 66%
    08:00 +1°C° 0 mm 13 m/s 727 mmHg 65%
    09:00 +2°C° 0 mm 12 m/s 729 mmHg 64%
    10:00 +2°C° 0 mm 12 m/s 729 mmHg 63%
    11:00 +2°C° 0 mm 11 m/s 730 mmHg 62%
    12:00 +2°C° 0 mm 11 m/s 731 mmHg 60%
    13:00 +2°C° 0 mm 11 m/s 731 mmHg 62%
    14:00 +2°C° 0 mm 11 m/s 731 mmHg 63%
    15:00 +2°C° 0 mm 10 m/s 732 mmHg 65%
    16:00 +2°C° 0 mm 10 m/s 732 mmHg 65%
    17:00 +2°C° 0 mm 9 m/s 733 mmHg 65%
    18:00 +1°C° 0 mm 8 m/s 733 mmHg 65%
    19:00 +2°C° 0 mm 7 m/s 734 mmHg 66%
    20:00 +2°C° 0 mm 6 m/s 734 mmHg 68%
    21:00 +2°C° 0 mm 6 m/s 734 mmHg 69%
    22:00 +2°C° 0.1 mm 6 m/s 734 mmHg 74%
    23:00 +1°C° 0.1 mm 6 m/s 734 mmHg 79%
    Voir plus